| time (UTC) | temp F | wind direction | speed MPH | gust MPH | rain 1hr in | rain 24hr in | rain mn in | humidity % | barometer mb |
| 20260505051402 | 63 | 222 | 4.0 | 7.0 | 0.00 | 0.00 | 0.00 | 81 | 1000.2 |
| 20260505050409 | 64 | 192 | 6.0 | 9.0 | 0.00 | 0.00 | 0.00 | 80 | 1000.2 |
| 20260505041404 | 66 | 161 | 3.0 | 8.0 | 0.00 | 0.00 | 0.00 | 79 | 1000.2 |
| 20260505040903 | 66 | 158 | 5.0 | 8.0 | 0.00 | 0.00 | 0.00 | 78 | 1000.2 |
| 20260505035903 | 67 | 190 | 4.0 | 6.0 | 0.00 | 0.00 | 0.00 | 77 | 1000.2 |
| 20260505035401 | 67 | 218 | 1.0 | 6.0 | 0.00 | 0.00 | 0.00 | 72 | 1000.2 |
| 20260505034851 | 68 | 173 | 3.0 | 8.0 | 0.00 | 0.00 | 0.00 | 75 | 1000.2 |
| 20260505033910 | 68 | 167 | 5.0 | 7.0 | 0.00 | 0.00 | 0.00 | 71 | 1000.2 |
| 20260505032914 | 69 | 195 | 1.0 | 4.0 | 0.00 | 0.00 | 0.00 | 69 | 1000.2 |
| 20260505032400 | 68 | 195 | 2.0 | 4.0 | 0.00 | 0.00 | 0.00 | 67 | 1000.2 |
| 20260505031401 | 69 | 262 | 0.0 | 3.0 | 0.00 | 0.00 | 0.00 | 71 | 1000.2 |
| 20260505030359 | 71 | 281 | 1.0 | 5.0 | 0.00 | 0.00 | 0.00 | 64 | 1000.2 |
| 20260505025349 | 72 | 280 | 2.0 | 8.0 | 0.00 | 0.00 | 0.00 | 58 | 1000.2 |
| 20260505023902 | 73 | 286 | 3.0 | 8.0 | 0.00 | 0.00 | 0.00 | 57 | 1000.2 |
| 20260505022901 | 74 | 284 | 4.0 | 8.0 | 0.00 | 0.00 | 0.00 | 55 | 1000.2 |
| 20260505021900 | 74 | 271 | 4.0 | 9.0 | 0.00 | 0.00 | 0.00 | 56 | 1000.2 |
| 20260505021352 | 75 | 278 | 4.0 | 8.0 | 0.00 | 0.00 | 0.00 | 55 | 1000.2 |
| 20260505020348 | 75 | 274 | 4.0 | 8.0 | 0.00 | 0.00 | 0.00 | 55 | 1000.2 |
| 20260505015415 | 76 | 272 | 6.0 | 11.0 | 0.00 | 0.00 | 0.00 | 54 | 1000.2 |
| 20260505014859 | 75 | 254 | 3.0 | 9.0 | 0.00 | 0.00 | 0.00 | 59 | 1000.2 |
| 20260505013859 | 73 | 263 | 2.0 | 4.0 | 0.00 | 0.00 | 0.00 | 59 | 1000.2 |
| 20260505012902 | 72 | 265 | 1.0 | 4.0 | 0.00 | 0.00 | 0.00 | 62 | 1000.2 |
| 20260505012353 | 71 | 257 | 2.0 | 4.0 | 0.00 | 0.00 | 0.00 | 69 | 1000.2 |
| 20260505011406 | 71 | 184 | 2.0 | 4.0 | 0.00 | 0.00 | 0.00 | 69 | 1000.2 |
| 20260505010351 | 71 | 262 | 2.0 | 7.0 | 0.00 | 0.00 | 0.00 | 67 | 1000.2 |
| 20260505005404 | 69 | 218 | 1.0 | 4.0 | 0.00 | 0.00 | 0.00 | 73 | 1000.2 |
| 20260505004358 | 70 | 217 | 1.0 | 6.0 | 0.00 | 0.00 | 0.00 | 69 | 1000.2 |
| 20260505003850 | 69 | 224 | 3.0 | 8.0 | 0.00 | 0.00 | 0.00 | 71 | 1000.2 |
| 20260505002859 | 70 | 171 | 5.0 | 9.0 | 0.00 | 0.00 | 0.00 | 70 | 1000.2 |
| 20260505002353 | 71 | 153 | 7.0 | 9.0 | 0.00 | 0.00 | 0.00 | 67 | 1000.2 |
| 20260505001349 | 72 | 173 | 3.0 | 7.0 | 0.00 | 0.00 | 0.00 | 65 | 1000.2 |
| 20260505000407 | 72 | 211 | 4.0 | 7.0 | 0.00 | 0.00 | 0.00 | 62 | 1000.2 |
| 20260504235356 | 72 | 153 | 5.0 | 8.0 | 0.00 | 0.00 | 0.00 | 64 | 1000.2 |
| 20260504234402 | 73 | 150 | 5.0 | 9.0 | 0.00 | 0.00 | 0.00 | 60 | 1000.2 |
| 20260504233858 | 73 | 153 | 4.0 | 8.0 | 0.00 | 0.00 | 0.00 | 62 | 1000.2 |
| 20260504232914 | 72 | 170 | 6.0 | 8.0 | 0.00 | 0.00 | 0.00 | 64 | 1000.2 |
| 20260504231901 | 73 | 139 | 6.0 | 10.0 | 0.00 | 0.00 | 0.00 | 58 | 1000.2 |
| 20260504231350 | 72 | 141 | 8.0 | 11.0 | 0.00 | 0.00 | 0.00 | 62 | 1000.2 |
| 20260504230407 | 72 | 158 | 8.0 | 14.0 | 0.00 | 0.00 | 0.00 | 61 | 1000.2 |
| 20260504225358 | 72 | 161 | 8.0 | 11.0 | 0.00 | 0.00 | 0.00 | 57 | 1000.2 |
| 20260504224857 | 72 | 153 | 7.0 | 12.0 | 0.00 | 0.00 | 0.00 | 63 | 1000.2 |
| 20260504223858 | 72 | 150 | 8.0 | 11.0 | 0.00 | 0.00 | 0.00 | 59 | 1000.2 |
| 20260504223359 | 73 | 143 | 10.0 | 15.0 | 0.00 | 0.00 | 0.00 | 58 | 1000.2 |
| 20260504222856 | 72 | 139 | 9.0 | 13.0 | 0.00 | 0.00 | 0.00 | 60 | 1000.2 |
| 20260504221907 | 72 | 150 | 7.0 | 14.0 | 0.00 | 0.00 | 0.00 | 58 | 1000.2 |
| 20260504221359 | 72 | 137 | 9.0 | 14.0 | 0.00 | 0.00 | 0.00 | 61 | 1000.2 |
| 20260504220900 | 72 | 144 | 11.0 | 14.0 | 0.00 | 0.00 | 0.00 | 61 | 1000.2 |
| 20260504215905 | 72 | 148 | 10.0 | 14.0 | 0.00 | 0.00 | 0.00 | 61 | 1000.2 |
| 20260504215401 | 72 | 146 | 9.0 | 12.0 | 0.00 | 0.00 | 0.00 | 59 | 1000.2 |
| 20260504214851 | 72 | 138 | 10.0 | 14.0 | 0.00 | 0.00 | 0.00 | 60 | 1000.2 |
| 20260504214344 | 71 | 151 | 10.0 | 13.0 | 0.00 | 0.00 | 0.00 | 61 | 1000.2 |
| 20260504213353 | 71 | 158 | 7.0 | 10.0 | 0.00 | 0.00 | 0.00 | 61 | 1000.2 |
| 20260504212359 | 71 | 153 | 9.0 | 12.0 | 0.00 | 0.00 | 0.00 | 60 | 1000.2 |
| 20260504211400 | 71 | 161 | 6.0 | 9.0 | 0.00 | 0.00 | 0.00 | 61 | 1000.2 |
| 20260504210404 | 69 | 164 | 6.0 | 8.0 | 0.00 | 0.00 | 0.00 | 68 | 1000.2 |
| 20260504205850 | 70 | 169 | 6.0 | 8.0 | 0.00 | 0.00 | 0.00 | 67 | 1000.2 |
| 20260504204857 | 69 | 153 | 4.0 | 9.0 | 0.00 | 0.00 | 0.00 | 71 | 1000.2 |
| 20260504203900 | 69 | 174 | 3.0 | 6.0 | 0.00 | 0.00 | 0.00 | 71 | 1000.2 |
| 20260504203358 | 71 | 179 | 3.0 | 6.0 | 0.00 | 0.00 | 0.00 | 58 | 1000.2 |
| 20260504202857 | 69 | 208 | 1.0 | 4.0 | 0.00 | 0.00 | 0.00 | 67 | 1000.2 |
| 20260504201907 | 67 | 207 | 1.0 | 6.0 | 0.00 | 0.00 | 0.00 | 70 | 1000.2 |
| 20260504200855 | 68 | 219 | 3.0 | 5.0 | 0.00 | 0.00 | 0.00 | 68 | 1000.2 |
| 20260504195908 | 68 | 219 | 1.0 | 4.0 | 0.00 | 0.00 | 0.00 | 70 | 1000.2 |
| 20260504195357 | 67 | 219 | 2.0 | 4.0 | 0.00 | 0.00 | 0.00 | 73 | 1000.2 |
| 20260504194400 | 68 | 184 | 4.0 | 8.0 | 0.00 | 0.00 | 0.00 | 69 | 1000.2 |
| 20260504193854 | 69 | 157 | 6.0 | 9.0 | 0.00 | 0.00 | 0.00 | 66 | 1000.2 |
| 20260504192910 | 68 | 165 | 5.0 | 7.0 | 0.00 | 0.00 | 0.00 | 65 | 1000.2 |
| 20260504191855 | 66 | 223 | 3.0 | 5.0 | 0.00 | 0.00 | 0.00 | 75 | 1000.2 |
| 20260504190858 | 64 | 255 | 2.0 | 5.0 | 0.00 | 0.00 | 0.00 | 78 | 1000.2 |
| 20260504190348 | 64 | 239 | 3.0 | 5.0 | 0.00 | 0.00 | 0.00 | 78 | 1000.2 |
| 20260504185357 | 64 | 238 | 2.0 | 5.0 | 0.00 | 0.00 | 0.00 | 78 | 1000.2 |
| 20260504184856 | 65 | 248 | 3.0 | 6.0 | 0.00 | 0.00 | 0.00 | 77 | 1000.2 |
| 20260504183902 | 64 | 232 | 3.0 | 6.0 | 0.00 | 0.00 | 0.00 | 78 | 1000.2 |
| 20260504182855 | 63 | 236 | 5.0 | 7.0 | 0.00 | 0.00 | 0.00 | 78 | 1000.2 |
| 20260504182349 | 63 | 213 | 4.0 | 6.0 | 0.00 | 0.00 | 0.00 | 80 | 1000.2 |
| 20260504181353 | 63 | 221 | 4.0 | 9.0 | 0.00 | 0.00 | 0.00 | 81 | 1000.2 |
| 20260504180353 | 62 | 255 | 4.0 | 8.0 | 0.00 | 0.00 | 0.00 | 82 | 1000.2 |
| 20260504175405 | 62 | 252 | 4.0 | 7.0 | 0.00 | 0.00 | 0.00 | 81 | 1000.2 |
| 20260504174405 | 62 | 234 | 4.0 | 6.0 | 0.00 | 0.00 | 0.00 | 79 | 1000.2 |
| 20260504173840 | 62 | 250 | 3.0 | 5.0 | 0.00 | 0.00 | 0.00 | 82 | 1000.2 |
| 20260504173123 | 59 | 244 | 0.0 | 0.0 | 0.00 | 0.00 | 0.00 | 84 | 1000.2 |
| 20260504160355 | 57 | 222 | 0.0 | 0.0 | 0.00 | 0.00 | 0.00 | 87 | 1000.2 |
| 20260504150900 | 56 | 32 | 0.0 | 0.0 | 0.00 | 0.00 | 0.00 | 85 | 1000.2 |
| 20260504150350 | 56 | 32 | 0.0 | 0.0 | 0.00 | 0.00 | 0.00 | 86 | 1000.2 |
| 20260504130402 | 51 | 32 | 0.0 | 0.0 | 0.00 | 0.00 | 0.00 | 91 | 1000.2 |
| 20260504100347 | 53 | 21 | 0.0 | 0.0 | 0.00 | 0.00 | 0.00 | 87 | 1000.2 |
| 20260504081849 | 55 | 21 | 0.0 | 0.0 | 0.00 | 0.00 | 0.00 | 85 | 1000.2 |
| 20260504080902 | 55 | 21 | 0.0 | 0.0 | 0.00 | 0.00 | 0.00 | 85 | 1000.2 |
| 20260504070400 | 57 | 21 | 0.0 | 0.0 | 0.00 | 0.00 | 0.00 | 80 | 1000.2 |